星链-34905 (STARLINK-34905)

导读

STARLINK-34823是美国太空探索技术公司SpaceX星链互联网星座的一员,于2025年8月28日发射升空。星链计划旨在搭建全球覆盖的低轨卫星互联网,该卫星入轨后,将同其他星链卫星协同工作,为全球偏远区域、海洋空域等各类场景提供低延迟、高带宽的宽带网络接入服务。

基本信息
目录编号:
65355
目录名称:
STARLINK-34823
国际标识:
2025-190E
轨道中心:
EARTH
卫星名称:
星链-34905
卫星全名:
星链-34905 (STARLINK-34905)
卫星状态:
在轨 (已飞行381 天)
发射日期:
2025-08-28 UTC
国别 :
美国 (US)
星等 :
--
该卫星已列入 空间交会检测服务 Space Conjunction Data Service (SCDS) ,当前飞行风险评估等级: 无高风险
轨道信息
数据来源 国际轨道数据
星历时间: 2026-09-13T02:10:46+0800
10小时前
查看轨道信息
半长轴: 6840.817km
偏心率: 0.0001131
轨道倾角: 53.160°
近地点辐角 77.126°
升交点赤经 18.029°
平近点角 282.987°
近地点: 461.906km
远地点: 463.454km
周期: 93.847分钟
每日圈数: 15.344081
详细信息
固有亮度:
5
最大亮度:
2.5
卫星平台:
Starlink V1.0
覆盖范围:
全球
运营商:
太空探索技术公司
运营商所在国:
美国
制造商(研发单位):
太空探索技术公司
制造商所在国:
美国
使用方式:
暂无
卫星简介
Starlink 计划是 SpaceX 推出的全球卫星互联网项目,通过发射低轨道卫星,为全球尤其是偏远地区提供高速、低延迟的互联网服务。自 2019 年起,Starlink 已部署数千颗卫星,旨在缩小全球数字鸿沟,推动互联网普及。该项目还为军事、航空等行业提供通信支持,带来广泛经济效益。
2D轨道图
3D轨道图
轨道高度分析图
轨道倾角分析图
轨道综合分析图
查看轨道综合分析图
交会数据列表
事件ID 空间交会对象 最接近时刻(TCA) 交会距离 交会风险概率(CRP) 交会风险指数(CRI) 操作
CDM_260914-103406-321006-535521
2026-09-14T
10:34:31+0000
2.005 km
极远距离
2.76471E-6 低风险 0.44
与全量物体交会距离演化趋势
与全量物体交会风险概率演化趋势